Location: Pinhead Observatory
(34.4473°N, 118.1985°W)
Time: 06:34:30
(UTC-07:00)

Daily predictions for brighter satellites

Satellite Brightness Start Highest point End
(mag) Time Altitude Azimuth Time Altitude Azimuth Time Altitude Azimuth
COSMO-SKYMED 1 3.1 19:06:33 10° N 19:10:51 66° WNW 19:15:08 10° SSW
Cosmos 2181 Rocket 4.3 19:06:19 10° N 19:12:10 43° E 19:17:56 10° SSE
USA 234 3.6 19:05:44 10° SE 19:12:16 73° SW 19:18:49 10° NW
MONITOR-E 4.5 19:09:20 10° S 19:12:24 73° WSW 19:15:29 10° NNW
Cosmos 1943 Rocket 2.4 19:09:12 10° N 19:14:38 51° ENE 19:20:05 10° SE
Cosmos 389 Rocket 2.4 19:11:44 10° S 19:15:13 70° E 19:18:42 10° NNE
Geosat 4.4 19:10:51 10° SE 19:15:35 43° ENE 19:20:19 10° N
Cosmos 1758 Rocket 4.0 19:14:12 10° N 19:18:30 43° E 19:22:46 10° SSE
Cosmos 1726 Rocket 3.6 19:16:40 10° S 19:20:57 59° E 19:25:14 10° NNE
H-2A R/B 3.7 19:19:53 10° SE 19:22:59 26° ENE 19:26:08 10° NNE
Cosmos 1709 Rocket 4.3 19:27:25 10° S 19:33:45 77° W 19:40:09 10° N
Cosmos 841 Rocket 3.5 19:29:03 10° S 19:34:05 57° ESE 19:39:07 10° NNE
Meteor 2-5 Rocket 3.9 19:31:21 10° N 19:37:03 51° ENE 19:42:35 10° SSE
Cosmos 1766 4.2 19:33:54 10° SSE 19:37:12 26° E 19:40:30 10° NNE
Cosmos 1937 Rocket 3.5 19:34:31 10° N 19:39:47 63° ENE 19:44:59 10° SSE
OAO 3 Copernicus 4.3 19:35:17 10° WSW 19:40:20 80° SSE 19:44:21 16° E
Cosmos 2298 Rocket 4.0 19:36:12 10° NNW 19:41:31 68° ENE 19:46:48 10° SSE
HJ-1C 4.0 19:39:18 10° SE 19:42:22 34° ENE 19:45:27 10° N
Cosmos 2084 3.7 19:38:18 10° SW 19:42:26 67° WNW 19:46:23 10° NNE
Tiangong 2 3.6 19:40:50 10° W 19:43:06 18° SW 19:45:22 10° S
Resurs 01 Rocket 2.9 19:41:53 17° E 19:43:43 21° ENE 19:47:02 10° NNE
Cosmos 304 Rocket 3.7 19:39:36 10° S 19:44:19 65° ESE 19:49:05 10° NNE
Cosmos 1707 2.6 19:41:32 10° N 19:45:28 73° E 19:49:21 10° SSE
COSMOS 2406 3.4 19:41:31 10° S 19:46:54 46° ESE 19:52:21 10° NE
FENGYUN 3A 3.8 19:42:20 10° S 19:47:40 77° WSW 19:53:03 10° NNW
USA 229 DEB 3.8 19:41:18 10° NNW 19:48:34 86° ENE 19:55:55 10° SSE
USA 229 3.8 19:41:24 10° NNW 19:48:39 85° ENE 19:56:00 10° SSE
FengYun 1-2 T 4.2 19:46:37 10° SSE 19:52:12 71° ENE 19:57:46 10° N
Cosmos 1656 Rocket 4.0 19:47:33 10° N 19:52:57 45° ENE 19:57:02 17° SE
Cosmos 2228 3.0 19:48:58 10° S 19:53:20 86° W 19:57:42 10° N
GP-B 4.2 19:50:06 10° NE 19:53:35 22° E 19:53:47 22° E
Cosmos 1763 Rocket 3.9 19:50:05 10° SSW 19:55:06 63° WNW 20:00:13 10° N
Cosmos 2369 Rocket 3.8 19:52:22 10° NW 19:57:28 36° WSW 20:02:31 10° SSW
Cosmos 540 Rocket 3.6 19:53:28 10° S 19:58:19 45° ESE 20:03:10 10° NNE
Cosmos 1812 Rocket 4.3 19:55:06 10° SSE 19:58:57 30° E 20:02:52 10° NNE
Cosmos 2184 Rocket 3.9 19:54:41 10° S 20:00:54 70° E 20:07:13 10° NNE
Cosmos 2058 Rocket 3.5 19:57:15 10° SSW 20:01:33 62° W 20:05:54 10° N
ALOS 3.4 19:57:14 10° S 20:01:42 46° W 20:06:12 10° NNW
Cosmos 482 Debris 3.2 19:58:10 10° NW 20:01:44 77° NE 20:02:13 53° ESE
NOSS 3-1 (C) 4.2 19:55:13 10° NNW 20:02:52 58° NE 20:09:05 19° SE
FREGAT/IRIS 3.4 20:00:12 10° S 20:03:09 52° W 20:06:07 10° NNW
Cosmos 1953 Rocket 4.3 20:00:57 10° NNW 20:05:10 53° W 20:09:20 10° S
BREEZE-M DEB 3.1 19:58:07 10° NW 20:05:35 68° NNE 20:06:44 37° ESE
Cosmos 1340 Rocket 4.1 20:01:56 10° NNW 20:05:48 43° W 20:09:40 10° SSW
Cosmos 1378 3.7 20:03:58 10° NNW 20:07:42 60° W 20:11:24 10° S
Cosmos 1544 3.0 20:05:40 10° S 20:09:13 56° E 20:12:46 10° NNE
Cosmos 1805 3.8 20:14:16 37° ENE 20:14:16 37° ENE 20:17:15 10° NNE
In-Cosmos 22 4.3 20:11:14 10° N 20:16:51 58° E 20:20:43 21° SSE
Meteor 2-8 Rocket 4.5 20:12:43 10° N 20:18:44 56° E 20:22:49 21° SSE
CZ-2D R/B 3.1 20:17:58 44° SE 20:19:00 68° ENE 20:22:48 10° N
Spot 2 Rocket 3.7 20:19:11 36° ESE 20:20:41 48° ENE 20:25:32 10° N
Cosmos 2327 Rocket 4.5 20:17:23 10° S 20:23:32 83° W 20:29:39 10° N
Cosmos 836 Rocket 4.4 20:18:44 10° SSW 20:24:01 89° ESE 20:29:19 10° NNE
Meteor 2-19 Rocket 4.3 20:21:02 10° S 20:27:01 68° E 20:33:02 10° NNE
Lacrosse 5 4.5 20:25:11 10° W 20:28:09 16° WSW 20:31:07 10° SSW
Cosmos 1356 Rocket 3.8 20:25:09 10° NNW 20:29:25 67° W 20:32:37 17° S
SJ-6B 4.2 20:28:31 10° S 20:32:19 39° W 20:36:05 10° NNW
BREEZE M DEB (TANK) 3.4 20:31:18 10° NW 20:35:50 43° N 20:35:50 43° N
Yuri Rocket 4.1 20:33:34 10° WSW 20:36:51 31° S 20:36:51 31° S
GEOS 3 Rocket 3.5 20:36:06 11° NE 20:41:21 75° ESE 20:46:42 10° SSW
Cosmos 962 Rocket 4.5 20:43:15 38° SSE 20:45:38 61° E 20:51:55 10° NNE
Meteor 1-24 Rocket 4.2 20:40:27 10° NNW 20:46:18 62° W 20:51:53 10° S
Cosmos 1125 Rocket 3.4 20:42:53 10° NNW 20:48:11 70° ENE 20:48:12 70° ENE
Envisat 2.9 20:52:10 68° S 20:52:50 86° WSW 20:57:56 10° NNW
Cosmos 1066 4.5 20:48:04 10° N 20:53:21 72° ENE 20:53:21 72° ENE
ATLAS CENTAUR R/B 2.7 20:46:29 10° NW 20:56:38 67° WSW 20:57:21 59° SSW
Resurs 1-3 4.2 21:00:28 51° WSW 21:00:44 52° W 21:05:02 10° NNW
Cosmos 372 Rocket 4.1 20:56:17 10° NNW 21:00:54 68° N 21:00:54 68° N
Milstar 3 Cent rocket 3.2 21:00:03 10° WSW 21:02:53 29° SSW 21:02:53 29° SSW
Cosmos 2154 Rocket 4.3 20:59:44 10° SSW 21:05:51 64° W 21:12:05 10° N
Cosmos 2341 Rocket 4.0 21:13:40 56° SSW 21:15:02 78° W 21:21:16 10° N
Resurs 01 Rocket 3.3 21:19:28 28° WSW 21:19:59 28° W 21:23:49 10° NW
ATLAS 2AS CENTAUR R/B 3.9 21:27:56 10° NNW 21:33:45 33° NNE 21:33:45 33° NNE
FALCON 9 R/B 3.3 21:40:22 10° W 21:42:57 45° W 21:42:57 45° W
